User: anonymous   Login
Location: Omaha
(41.2590°N, 95.9380°W)
Time: 16:34:23
(UTC-06:00)
Language:

Tiangong 1 - Orbit

View from above orbital plane
View from above orbital plane
View from above satellite
View from above satellite

Ground track
Ground track

The orbit data is extracted from the following two-line orbital elements,

1 37820U 11053A   18054.42593440  .00124143  15341-4  15928-3 0  9990
2 37820  42.7512  76.9594 0016028  95.5936  39.2877 16.06349277367958
Epoch (UTC): 23 February 2018 10:13:20
Eccentricity: 0.0016028
inclination: 42.7512°
perigee height: 246 km
apogee height: 267 km
right ascension of ascending node: 76.9594°
argument of perigee: 95.5936°
revolutions per day: 16.06349277
mean anomaly at epoch: 39.2877°
orbit number at epoch: 36795

The dashed part of the orbit path shows where the satellite is in the earth's shadow,  

DLR